Location: *
(37.9500°N, 27.3666°E)
Time: 14:18:11
(UTC+00:00)

H-2A R/B - Pass Details

Date: 24 October 2021
Orbit: 732 x 837 km, 98.2° (Epoch: 03 December)

Event Time Altitude Azimuth Distance (km) Brightness Sun altitude
Rises 15:51:42 0° 153° (SSE) 3,330 5.1 -6.8°
Reaches altitude 10° 15:54:03 10° 149° (SSE) 2,414 4.4 -7.2°
Maximum altitude 15:59:17 55° 73° (ENE) 993 2.3 -8.2°
Drops below altitude 10° 16:04:36 10° 357° (N) 2,457 4.6 -9.3°
Sets 16:07:01 0° 353° (N) 3,396 5.3 -9.7°
